Regional Weather Roundup
Issued by NWS

Home | Current Version | Previous Version | Graphics & Text | Print | Product List | Glossary On
Versions: 1 2 3 4 5 6 7 8 9 10 11 12 13 14 15 16 17 18 19 20 21 22 23 24 25 26 27 28 29 30 31 32 33 34 35 36 37 38 39 40 41 42 43 44 45 46 47 48 49 50
031
ASUS44 KMEG 131600
RWRTN
TENNESSEE HOURLY STATE WEATHER ROUNDUP
NATIONAL WEATHER SERVICE MEMPHIS TN
1000 AM CST SAT FEB 13 2016

TNZ002-004-019-021-049-052-054-088>092-131700-
WEST TENNESSEE

CITY           SKY/WX    TMP DP  RH WIND       PRES   REMARKS
MEMPHIS INTL   PTSUNNY   31  10  41 NE12      30.59S WCI  22
NWS MEMPHIS      N/A     28 N/A N/A MISG        N/A
JACKSON        CLOUDY    26  11  52 N7G16     30.60R WCI  18
DYERSBURG      CLOUDY    23   9  54 NE7       30.64S WCI  15
UNION CITY     SUNNY     19   7  58 NE13      30.60F WCI   7
PARIS          SUNNY     19   5  53 NE9       30.58F WCI   9
LEXINGTON      MOSUNNY   23   7  50 NE7       30.57S WCI  15
$$

TNZ008-025-027-028-033-062-065-066-131700-
NORTH MIDDLE TENNESSEE

CITY           SKY/WX    TMP DP  RH WIND       PRES   REMARKS
NASHVILLE      SUNNY     26   4  38 N15       30.56F WCI  14
CLARKSVILLE    SUNNY     22   5  48 N10       30.59F WCI  11
COOKEVILLE     SUNNY     23   7  50 N8        30.49R WCI  14
CROSSVILLE     SUNNY     22   4  46 NW14      30.41R WCI   9
$$

TNZ061-075-076-078-094-096-097-131700-
SOUTH MIDDLE TENNESSEE

CITY           SKY/WX    TMP DP  RH WIND       PRES   REMARKS
TULLAHOMA      SUNNY     25   1  36 N10       30.48F WCI  15
WINCHESTER     SUNNY     27  10  50 N9        30.49R WCI  17
MCMINNVILLE    SUNNY     25   7  46 N9        30.49S WCI  15
COLUMBIA       SUNNY     27   7  43 N12       30.54R WCI  16
SHELBYVILLE    SUNNY     27   7  43 NE15      30.53S WCI  15
$$

TNZ017-018-042-046-047-131700-
NORTHEAST TENNESSEE

CITY           SKY/WX    TMP DP  RH WIND       PRES   REMARKS
TRI CITIES     MOSUNNY   22   6  50 W8        30.38R WCI  12
$$

TNZ012-013-036-069-073-074-131700-
CENTRAL EAST TENNESSEE

CITY           SKY/WX    TMP DP  RH WIND       PRES   REMARKS
KNOXVILLE      MOSUNNY   26   8  46 NE12      30.45R WCI  16
OAK RIDGE      SUNNY     27   7  42 VRB3      30.47S
GATLINBURG     SUNNY     23   9  54 N10       30.44R WCI  12
$$

TNZ083-085-099-131700-
SOUTHEAST TENNESSEE

CITY           SKY/WX    TMP DP  RH WIND       PRES   REMARKS
CHATTANOOGA    SUNNY     31   5  33 NW16G22   30.46S WCI  20
$$

SKY/WX REPORTED AS FAIR MEANS FEW OR NO CLOUDS BELOW
12 THOUSAND FEET.





USA.gov is the U.S. government's official web portal to all federal, state and local government web resources and services.